User: anonymous   Login
Location: Passau
(48.5830°N, 13.4830°E)
Time: 11:54:13
(UTC+02:00)
Language:

Tiros 1 despin weight - Orbit

View from above orbital plane
View from above orbital plane
View from above satellite
View from above satellite

Ground track
Ground track

The orbit data is extracted from the following two-line orbital elements,

1   115U 60002D   21214.86362380 -.00000022  00000-0  24402-4 0  9992
2   115  48.1669  95.6116 0034908 262.9680  96.7262 14.83802221274060
Epoch (UTC): 02 August 2021 20:43:37
Eccentricity: 0.0034908
inclination: 48.1669°
perigee height: 593 km
apogee height: 642 km
right ascension of ascending node: 95.6116°
argument of perigee: 262.9680°
revolutions per day: 14.83802221
mean anomaly at epoch: 96.7262°
orbit number at epoch: 27406

The dashed part of the orbit path shows where the satellite is in the earth's shadow,  

DLR